SSEC Globe Logo

Space Science and Engineering Center

Wisconsin State Observations

ASUS43 KMKX 240620                                              2019114 0620
RWRWI
WISCONSIN REGIONAL WEATHER ROUNDUP
NATIONAL WEATHER SERVICE MILWAUKEE/SULLIVAN WI
NOTE: "FAIR" INDICATES FEW OR NO CLOUDS BELOW 12,000 FEET WITH NO
SIGNIFICANT WEATHER AND/OR OBSTRUCTIONS TO VISIBILITY.

CITY           SKY/WX    TMP DP  RH WIND       PRES   REMARKS
SUPERIOR ARPT  FAIR      37  31  79 NE3       29.95S
6HR MIN TEMP:  37; 6HR MAX TEMP:  42;
ASHLAND        FAIR      34  31  88 CALM      29.96F
6HR MIN TEMP:  33; 6HR MAX TEMP:  43;
HAYWARD        FAIR      42  39  89 SW3       29.96F
6HR MIN TEMP:  41; 6HR MAX TEMP:  61;
SIREN          FAIR      49  38  64 S7        29.94F
6HR MIN TEMP:  48; 6HR MAX TEMP:  61;
CUMBERLAND     FAIR      43  36  75 S8        29.97F
RICE LAKE      FAIR      42  32  67 SE3       29.99F
6HR MIN TEMP:  41; 6HR MAX TEMP:  61;
CHETEK         FAIR      38  37  96 E7        29.99F WCI  32
6HR MIN TEMP:  38; 6HR MAX TEMP:  60;
LADYSMITH      FAIR      41  35  79 E5        30.00F
6HR MIN TEMP:  41; 6HR MAX TEMP:  63;
EAU CLAIRE     FAIR      40  34  79 CALM      29.99S
6HR MIN TEMP:  38; 6HR MAX TEMP:  63;
MENOMONIE      FAIR      38  35  85 CALM      30.00S
6HR MIN TEMP:  39; 6HR MAX TEMP:  59;
NEW RICHMOND   FAIR      47  36  66 S5        29.97F
6HR MIN TEMP:  45; 6HR MAX TEMP:  62;
OSCEOLA        FAIR      46  38  75 S6        29.99F
6HR MIN TEMP:  44; 6HR MAX TEMP:  63;


CITY           SKY/WX    TMP DP  RH WIND       PRES   REMARKS
MANITOWISH WTR FAIR      36  32  85 CALM      29.99F
6HR MIN TEMP:  36; 6HR MAX TEMP:  54;
ARBOR VITAE    FAIR      37  32  83 CALM      29.99F
6HR MIN TEMP:  37; 6HR MAX TEMP:  57;
WOODRUFF       FAIR      37  32  83 CALM      29.99F
6HR MIN TEMP:  37; 6HR MAX TEMP:  57;
RHINELANDER    FAIR      35  25  66 CALM      30.02R
6HR MIN TEMP:  35; 6HR MAX TEMP:  57;
EAGLE RIVER    FAIR      32  28  85 CALM      29.99F
6HR MIN TEMP:  32; 6HR MAX TEMP:  52;
LAND O LAKES   FAIR      32  30  93 CALM      30.01F
6HR MIN TEMP:  32; 6HR MAX TEMP:  54;
PHILLIPS       FAIR      35  34  94 CALM      29.99F
6HR MIN TEMP:  35; 6HR MAX TEMP:  58;
TOMAHAWK       FAIR      31  29  92 CALM      30.01F
6HR MIN TEMP:  31; 6HR MAX TEMP:  56;
MEDFORD        FAIR      39  33  77 CALM      30.00F
6HR MIN TEMP:  37; 6HR MAX TEMP:  57;
MERRILL        FAIR      32  31  94 CALM      30.02S
6HR MIN TEMP:  33; 6HR MAX TEMP:  58;


CITY           SKY/WX    TMP DP  RH WIND       PRES   REMARKS
WAUSAU         FAIR      41  34  76 E6        30.00F
6HR MIN TEMP:  40; 6HR MAX TEMP:  60;
MOSINEE        FAIR      41  30  65 E6        30.02F
MARSHFIELD     FAIR      45  35  68 CALM      30.00F
6HR MIN TEMP:  44; 6HR MAX TEMP:  61;
STEVENS POINT  FAIR      40  36  86 SE5       30.03S
6HR MIN TEMP:  35; 6HR MAX TEMP:  59;
WAUPACA        FAIR      43  38  80 SE5       30.05S
6HR MIN TEMP:  43; 6HR MAX TEMP:  64;
WAUTOMA        FAIR      44  41  89 E6        30.04S
6HR MIN TEMP:  40; 6HR MAX TEMP:  63;
WISC RAPIDS    FAIR      41  31  67 CALM      30.02S
6HR MIN TEMP:  41; 6HR MAX TEMP:  63;
CAMP DOUGLAS   FAIR      37  37 100 CALM      30.01S
6HR MIN TEMP:  37; 6HR MAX TEMP:  64;


CITY           SKY/WX    TMP DP  RH WIND       PRES   REMARKS
ANTIGO         FAIR      38  32  80 SE5       30.03F WCI  34
6HR MIN TEMP:  38; 6HR MAX TEMP:  55;
SHAWANO        FAIR      38  32  77 CALM      30.05F
6HR MIN TEMP:  39; 6HR MAX TEMP:  62;
OCONTO         FAIR      34  33  96 CALM      30.06S
6HR MIN TEMP:  33; 6HR MAX TEMP:  47;
STURGEON BAY   FAIR      38  33  82 CALM      30.07F
6HR MIN TEMP:  37; 6HR MAX TEMP:  48;
GREEN BAY      FAIR      41  34  76 SE6       30.06F
6HR MIN TEMP:  41; 6HR MAX TEMP:  58;
MANITOWOC      FAIR      36  35  96 CALM      30.07F
6HR MIN TEMP:  36; 6HR MAX TEMP:  43;
APPLETON       FAIR      41  30  65 SE6       30.04S
CLINTONVILLE   FAIR      40  34  79 CALM      30.05F
6HR MIN TEMP:  40; 6HR MAX TEMP:  61;
OSHKOSH        FAIR      39  35  86 SE5       30.05S
6HR MIN TEMP:  39; 6HR MAX TEMP:  60;


CITY           SKY/WX    TMP DP  RH WIND       PRES   REMARKS
LA CROSSE      FAIR      47  38  71 CALM      30.00S
6HR MIN TEMP:  46; 6HR MAX TEMP:  65;
SPARTA         FAIR      36  34  93 CALM      30.02S
6HR MIN TEMP:  36; 6HR MAX TEMP:  64;
VIROQUA        FAIR      48  36  63 E5        30.00S
6HR MIN TEMP:  49; 6HR MAX TEMP:  63;
BOSCOBEL       FAIR      42  39  89 CALM      30.01F
6HR MIN TEMP:  42; 6HR MAX TEMP:  67;
PRAIRIE DU CHI FAIR      44  39  80 CALM      30.01S
6HR MIN TEMP:  45; 6HR MAX TEMP:  64;
PLATTEVILLE    FAIR      52  37  57 SE6       30.01S
6HR MIN TEMP:  51; 6HR MAX TEMP:  62;

CITY           SKY/WX    TMP DP  RH WIND       PRES   REMARKS
REEDSBURG      FAIR      43  41  93 CALM      30.00S
6HR MIN TEMP:  43; 6HR MAX TEMP:  63;
BARABOO/DELLS  FAIR      41  34  76 CALM      30.00S
6HR MIN TEMP:  43; 6HR MAX TEMP:  63;
LONE ROCK      FAIR      46  42  86 CALM      30.00F
6HR MIN TEMP:  44; 6HR MAX TEMP:  65;
MINERAL POINT  FAIR      52  34  50 S3        30.00S
MADISON        FAIR      44  38  79 CALM      30.01S
6HR MIN TEMP:  43; 6HR MAX TEMP:  63;
MIDDLETON      FAIR      43  41  94 CALM      30.02S
6HR MIN TEMP:  43; 6HR MAX TEMP:  63;
WATERTOWN      FAIR      41  39  95 E6        30.03F
6HR MIN TEMP:  41; 6HR MAX TEMP:  62; 6HR PCP:  0.01;
MONROE         FAIR      52  33  48 MISG      30.00S
6HR MIN TEMP:  52; 6HR MAX TEMP:  62;
JANESVILLE     FAIR      43  39  87 E3        30.02S


CITY           SKY/WX    TMP DP  RH WIND       PRES   REMARKS
MILWAUKEE      FAIR      42  34  73 CALM      30.05F
6HR MIN TEMP:  41; 6HR MAX TEMP:  49;
WAUKESHA       FAIR      37  32  81 E3        30.05F
MILWAUKEE/TIMM FAIR      41  32  70 CALM      30.06F
RACINE         FAIR      41  36  82 NE3       30.06F
6HR MIN TEMP:  39; 6HR MAX TEMP:  50;
KENOSHA        FAIR      40  39  97 E3        30.05
6HR MIN TEMP:  37; 6HR MAX TEMP:  55;
FOND DU LAC    FAIR      41  34  76 SE9       30.05F
6HR MIN TEMP:  40; 6HR MAX TEMP:  61;
SHEBOYGAN      FAIR      38  36  92 CALM      30.06F
6HR MIN TEMP:  37; 6HR MAX TEMP:  45;
WEST BEND      FAIR      36  36 100 CALM      30.06F
JUNEAU         FAIR      40  35  81 E8        30.04F WCI  35
6HR MIN TEMP:  40; 6HR MAX TEMP:  61;
LSZ147-162-240700-
LAKE SUPERIOR

STATION/POSITION TIME  TEMP    WIND        PRES    WAVE
                       AIR SEA DIR/SP/G            HT/PER
                 (UTC) (F)     (DEG/KT/KT) (MB)    (FT/S)

LMZ867-665-643>646-240700-
LAKE MICHIGAN

STATION/POSITION TIME  TEMP    WIND        PRES    WAVE
                       AIR SEA DIR/SP/G            HT/PER
                 (UTC) (F)     (DEG/KT/KT) (MB)    (FT/S)
NORTHPORT PIER   0540   35     220/  3/  4 1017.6S
KE